Regional Weather Roundup
Issued by NWS

Home | Current Version | Previous Version | Text Only | Print | Product List | Glossary Off
Versions: 1 2 3 4 5 6 7 8 9 10 11 12 13 14 15 16 17 18 19 20 21 22 23 24 25 26 27 28 29 30 31 32 33 34 35 36 37 38 39 40 41 42 43 44 45 46 47 48 49 50

000
ASUS43 KFSD 191510
RWRSD

WEATHER ROUNDUP FOR SOUTH DAKOTA
NATIONAL WEATHER SERVICE SIOUX FALLS SD
1000 AM CDT SUN APR 19 2015

NOTE: "FAIR" INDICATES FEW OR NO CLOUDS BELOW 12,000 FEET WITH NO
SIGNIFICANT WEATHER AND/OR OBSTRUCTIONS TO VISIBILITY.


SDZ001>005-009-010-012>017-191600-
NORTHWEST AND NORTH CENTRAL SOUTH DAKOTA

CITY           SKY/WX    TMP DP  RH WIND       PRES   REMARKS
BUFFALO          N/A     42  27  55 NW37G46   29.96F
FAITH            N/A     43  29  57 NW30G40   29.99F
MOBRIDGE       SUNNY     46  35  65 NW23G31   29.88F
$$

SDZ012>016-024>037-041>051-057-063-072>074-191600-
SOUTHWEST AND SOUTH CENTRAL SOUTH DAKOTA

CITY           SKY/WX    TMP DP  RH WIND       PRES   REMARKS
RAPID CTY ARPT SUNNY     44  26  49 NW29G39   30.06F
PIERRE         SUNNY     47  34  60 NW24G31   29.94F
CUSTER         SUNNY     33  17  51 NW14G26   30.05F WCI  23
ELLSWORTH AFB  SUNNY     43  25  49 NW30G41   30.04F
PHILIP         SUNNY     47  29  49 NW28G38   30.01F
PINE RIDGE     SUNNY     44  25  47 NW16G31   30.07S
SPEARFISH      FAIR      39  25  56 NW22G33   30.11S
WINNER         FAIR      48  31  51 NW29G38   29.94S
$$

SDZ004>011-016>023-039-040-191600-
NORTHEAST SOUTH DAKOTA

CITY           SKY/WX    TMP DP  RH WIND       PRES   REMARKS
ABERDEEN       CLOUDY    47  39  74 NW23G30   29.83S
WATERTOWN      CLOUDY    45  43  93 NW25G31   29.75S
BROOKINGS      CLOUDY    48  45  87 NW23G35   29.75S
SISSETON         N/A     47  44  90 N24G30    29.73R
$$

SDZ017-020-022-023-036>040-048>070-191600-
SOUTHEAST SOUTH DAKOTA

CITY           SKY/WX    TMP DP  RH WIND       PRES   REMARKS
SIOUX FALLS    CLOUDY    51  46  83 NW18      29.76R
HURON          PTSUNNY   48  40  73 NW22      29.84R
CHAMBERLAIN    MOSUNNY   46  32  58 NW24G37   29.91F
MITCHELL       CLOUDY    48  42  80 NW21G36   29.85R
YANKTON        CLOUDY    48  43  81 NW26G37   29.80R
$$

ABBREVIATIONS USED IN REMARKS
   TC - TEMPERATURE IN CELSIUS
  WCI - WIND CHILL INDEX
   HX - HEAT INDEX
  VSB - VISIBILITY



USA.gov is the U.S. government's official web portal to all federal, state and local government web resources and services.